Content
SEND FEEDBACK

Daily
Averages
Monthly
Summary
Philippines

QUEZON CITY, PHILIPPINES


Home > Asia > Philippines
Elevation: 151 feet     Latitude: 14 39N     Longitude: 121 03E

WEATHER
 
SELECT A DAY
Number of Records: 178,098;   Date Range: 7/1/96 - 11/24/14
 
SHARE

PRINT THIS DATA

[ ← Previous Day ]
WEATHER ALMANAC - MAY 9, 2013
[ Next Day → ]
[ °C ]   °F
Weather ElementAverageHighLow
Temperature88.5 °F95 °F (1:00 pm)80 °F (5:00 am)
Dewpoint75.4 °F79 °F (8:00 am)73.4 °F (1:00 pm)
Humidity63.8 %79 % (3:00 am)43 % (5:00 pm)
Barometer29.81 in29.87 in (11:00 am)29.74 in (3:00 pm)
Wind Speed8.6 mph12.7 mph (1:00 pm)
Weather ElementAverage
Visibility6.1 mi
Wind DirectionESE (117.4 °)

Weather ElementTotal
Precipitation---
Cooling Degree Days22.5 (Base 65)
Growing Degree Days37.5 (Base 50)
Averaged from 31 records on May 9, 2013
WEATHER CONDITIONS BREAKOUT
WIND DIRECTION BREAKOUT
WEATHER BY HOUR - MAY 9, 2013
[ °C ]   °F
Local TimeTemperatureDewpointHumidityBarometerVisibilityWind DirectionWind SpeedGust SpeedPrecipitationEventsConditions
1:00 AM86.0 °F75.2 °F70 %29.80 in6.2 miESE (120°)9.2 mphPartly Cloudy
2:00 AM85.0 °F76.0 °F68 %29.81 in6.0 miESE (110°)8.9 mphHaze
2:00 AM86.0 °F75.2 °F70 %29.80 in6.2 miESE (110°)9.2 mphPartly Cloudy
3:00 AM84.2 °F77.0 °F79 %29.77 in6.2 miESE (110°)9.2 mphPartly Cloudy
4:00 AM84.2 °F75.2 °F74 %29.77 in6.2 miEast (100°)6.9 mphPartly Cloudy
5:00 AM80.0 °F75.0 °F79 %29.81 in6.0 miEast (100°)4.5 mphHaze
5:00 AM84.2 °F75.2 °F74 %29.80 in6.2 miEast (100°)4.6 mphScattered Clouds
6:00 AM84.2 °F75.2 °F74 %29.80 in6.2 miESE (110°)3.5 mphMostly Cloudy
7:00 AM84.2 °F75.2 °F74 %29.83 in6.2 miVariable2.3 mphMostly Cloudy
8:00 AM87.0 °F79.0 °F70 %29.86 in6.0 miESE (120°)6.7 mphHaze
8:00 AM86.0 °F77.0 °F74 %29.83 in6.2 miESE (120°)6.9 mphMostly Cloudy
9:00 AM87.8 °F77.0 °F70 %29.86 in6.2 miSE (130°)9.2 mphMostly Cloudy
10:00 AM89.6 °F75.2 °F62 %29.86 in6.2 miSE (130°)11.5 mphMostly Cloudy
11:00 AM92.0 °F76.0 °F51 %29.87 in6.0 miESE (120°)8.9 mphHaze
11:00 AM91.4 °F77.0 °F63 %29.83 in6.2 miESE (120°)10.4 mphScattered Clouds
12:00 PM93.2 °F77.0 °F59 %29.83 in6.2 miESE (110°)11.5 mphScattered Clouds
1:00 PM95.0 °F73.4 °F49 %29.80 in6.2 miESE (110°)12.7 mphScattered Clouds
2:00 PM95.0 °F75.0 °F44 %29.77 in6.0 miSE (130°)8.9 mphHaze
2:00 PM95.0 °F75.2 °F53 %29.77 in6.2 miSE (130°)10.4 mphScattered Clouds
3:00 PM95.0 °F75.2 °F53 %29.74 in6.2 miSE (130°)10.4 mphPartly Cloudy
4:00 PM95.0 °F77.0 °F56 %29.74 in6.2 miSSE (150°)8.1 mphScattered Clouds
5:00 PM94.0 °F74.0 °F43 %29.75 in6.0 miSSE (160°)11.2 mphPartly Cloudy
5:00 PM93.2 °F73.4 °F52 %29.74 in6.2 miSE (130°)12.7 mphScattered Clouds
6:00 PM89.6 °F73.4 °F59 %29.77 in6.2 miESE (120°)11.5 mphScattered Clouds
7:00 PM87.8 °F75.2 °F66 %29.77 in6.2 miSE (130°)10.4 mphScattered Clouds
8:00 PM87.0 °F75.0 °F60 %29.82 in6.0 miESE (120°)6.7 mphHaze
8:00 PM87.8 °F75.2 °F66 %29.80 in6.2 miESE (120°)8.1 mphPartly Cloudy
9:00 PM86.0 °F75.2 °F70 %29.83 in6.2 miESE (120°)8.1 mphPartly Cloudy
10:00 PM86.0 °F73.4 °F66 %29.83 in6.2 miESE (120°)8.1 mphPartly Cloudy
11:00 PM86.0 °F74.0 °F61 %29.86 in6.0 miSE (130°)6.7 mphHaze
11:00 PM86.0 °F75.2 °F70 %29.86 in6.2 miSE (130°)8.1 mphPartly Cloudy
Hourly data recorded from RPLL, located miles away from Quezon City, Philippines







STORIES FROM OUR PARTNERS